Location: Napier
(39.4830°S, 176.9170°E)
Time: 22:08:06
(UTC+13:00)

CZ-2C R/B - Pass Details

Date: 24 January 2019
Orbit: 705 x 907 km, 98.1° (Epoch: 15 October)

Event Time Altitude Azimuth Distance (km) Brightness Sun altitude
Rises 22:14:59 0° 148° (SSE) 3,134 6.3 -16.5°
Reaches altitude 10° 22:18:06 10° 127° (SE) 2,213 5.3 -17.0°
Enters shadow 22:20:32 16° 96° (E) 1,836 4.6 -17.3°
